"Pseudo-MPEC" for P1161Vg

Created 2020 Sep 18 10:07:34 UT using Find_Orb

Click here for an explanation of pseudo-MPECs

 
 Astrometry: 
     P1161Vg  C2020 09 135nZi'5vnN=^IK!s++[(AG?GFSsp(x\qGp`#xPyF$Astrometry=^F51
     P1161Vg  C2020 09 13'B`T'Ej/f7(3][,-=_i5``Oc8%=^^4B?V\t]'dFnUN'lch''Cpg]F51
     P1161Vg  C2020 09 13E*u%G3=[0\kl0NtNNh)IP@7PGrMq91D,ukt8'*urv_!p4O8=,bGLF51
     P1161Vg  C2020 09 14SQM%D?6:cv6/pN6#bQc=!wG:n-VpYcG`iL*/xLm4[c=KthI7+Jh,F51
     P1161Vg  C2020 09 1479t-L8T2[[pDwoqD],bXZO)f_-UlLl_y28-DNh;r@0idGPLHb`QbF51
     P1161Vg  C2020 09 14i=GwLm#rS#qepYcD!$pAh``6jf8RMi:redacted;p`;m3cp+NW[DF51
     P1161Vg  C2020 09 16jDBk#8gkRM[BmMt@ph7W*click^Dm/)c]:D[*hWPEo=7jLDhere7F51
     P1161Vg  C2020 09 16sXpaI'E-%8pcU-#yhbBE8goUXKy_o6_BH/*Kk)3pv)YQ77+YyM%kF51
     P1161Vg  C2020 09 16nN'ySfHC%ElhO=Y2**.4=`KTk*-rcR@kR!D_gforG)FlOiAF-Q`eF51
     P1161Vg  C2020 09 17$j2GN@slL9]%;\\)G]uPLpwN#(5?Gmu7%v?yo1LcI+$+I:hKwc!#F51
     P1161Vg  C2020 09 17Yx,6u0'h+G(8GQIM:LXr1'gyRbTBu,Nfg#vnE'glcYmo(@//x\@ZF51
     P1161Vg  C2020 09 17Itfg6tcf[7RHnNp9/7,spSBStQbLgexplanation\,6VMXmGAY(3F51

Station data:
(F51) Pan-STARRS 1, Haleakala  (N20.707235 W156.255910)  US/Hawaii.
   Observers N. Primak, A. Schultz, S. Watters, J. Thiel, T. Goggia. Measurer
   PS1 Science Consortium. 1.8-m Ritchey-Chrétien + CCD.

Orbital elements:  P1161Vg
   Perihelion 2020 Sep 27.033186 +/- 1.64 TT =  0:47:47 (JD 2459119.533186)
Epoch 2020 Sep 17.0 TT = JDT 2459109.5   Earth MOID: 0.3711   Ma: 0.0401
M 357.88202324 +/- 0.52             (J2000 ecliptic)          AutoNEOCP
n   0.21109711 +/- 0.0233           Peri.  279.06202 +/- 2.5
a   2.79349465 +/- 0.205            Node    91.94994 +/- 1.4
e   0.5110528 +/- 0.0312            Incl.    3.24794 +/- 0.08
P   4.67                   H 23.3   G  0.15   U 10.2  
q 1.36587137 +/- 0.0146    Q 4.22111792 +/- 0.439
From 12 observations 2020 Sept. 13-17; mean residual 0".08
Residuals in arcseconds: 
200913 F51  .05+  .08+    200914 F51  .07+  .03-    200916 F51  .00   .13-    
200913 F51  .01-  .01+    200914 F51  .01+  .01+    200917 F51  .19-  .05+    
200913 F51  .05-  .09-    200916 F51  .03+  .12-    200917 F51  .10+  .01-    
200914 F51  .07-  .09+    200916 F51  .00   .08+    200917 F51  .07+  .06+    

Ephemerides (geocentric):
Date (UTC) HH   RA              Dec         delta   r     elong  mag " sig PA
---- -- -- --  -------------   -----------  ------ ------ -----  --- ---- ---
2020 09 18 10  01 55 19.599   +00 13 29.62  .41164 1.3689 147.1 23.1 .770  44
2020 09 18 11  01 55 22.596   +00 13 38.47  .41154 1.3688 147.2 23.1 .788  44
2020 09 18 12  01 55 25.590   +00 13 47.33  .41144 1.3688 147.2 23.1 .806  44
2020 09 18 13  01 55 28.579   +00 13 56.18  .41134 1.3688 147.2 23.1 .824  44
2020 09 18 14  01 55 31.564   +00 14 05.03  .41125 1.3688 147.2 23.1 .842  44
2020 09 18 15  01 55 34.545   +00 14 13.88  .41115 1.3687 147.3 23.1 .860  44
2020 09 18 16  01 55 37.522   +00 14 22.73  .41105 1.3687 147.3 23.1 .879  44
2020 09 18 17  01 55 40.495   +00 14 31.58  .41095 1.3687 147.3 23.1 .898  44
2020 09 18 18  01 55 43.464   +00 14 40.43  .41085 1.3686 147.3 23.1 .917  44
2020 09 18 19  01 55 46.428   +00 14 49.27  .41076 1.3686 147.4 23.1 .936  44
2020 09 18 20  01 55 49.388   +00 14 58.12  .41066 1.3686 147.4 23.1 .956  44
2020 09 18 21  01 55 52.344   +00 15 06.97  .41056 1.3686 147.4 23.1 .976  44
2020 09 18 22  01 55 55.296   +00 15 15.81  .41047 1.3685 147.4 23.1 1.00  44
2020 09 18 23  01 55 58.244   +00 15 24.66  .41037 1.3685 147.5 23.1 1.02  44
2020 09 19 00  01 56 01.187   +00 15 33.50  .41027 1.3685 147.5 23.1 1.04  44
2020 09 19 01  01 56 04.127   +00 15 42.35  .41018 1.3685 147.5 23.1 1.06  44
2020 09 19 02  01 56 07.062   +00 15 51.19  .41008 1.3684 147.5 23.1 1.08  44
2020 09 19 03  01 56 09.993   +00 16 00.04  .40999 1.3684 147.6 23.1 1.10  44
2020 09 19 04  01 56 12.920   +00 16 08.88  .40989 1.3684 147.6 23.1 1.12  44
2020 09 19 05  01 56 15.842   +00 16 17.72  .40980 1.3684 147.6 23.1 1.14  44
2020 09 19 06  01 56 18.761   +00 16 26.57  .40970 1.3683 147.7 23.1 1.16  44
2020 09 19 07  01 56 21.675   +00 16 35.41  .40961 1.3683 147.7 23.1 1.18  44
2020 09 19 08  01 56 24.585   +00 16 44.25  .40951 1.3683 147.7 23.1 1.21  43
2020 09 19 09  01 56 27.491   +00 16 53.09  .40942 1.3682 147.7 23.1 1.23  43
2020 09 19 10  01 56 30.393   +00 17 01.93  .40932 1.3682 147.8 23.1 1.25  43
2020 09 19 11  01 56 33.290   +00 17 10.78  .40923 1.3682 147.8 23.1 1.27  43
2020 09 19 12  01 56 36.184   +00 17 19.62  .40914 1.3682 147.8 23.1 1.30  43
2020 09 19 13  01 56 39.073   +00 17 28.46  .40904 1.3681 147.8 23.1 1.32  43
2020 09 19 14  01 56 41.958   +00 17 37.30  .40895 1.3681 147.9 23.1 1.34  43
2020 09 19 15  01 56 44.839   +00 17 46.15  .40886 1.3681 147.9 23.1 1.37  43
2020 09 19 16  01 56 47.715   +00 17 54.99  .40876 1.3681 147.9 23.1 1.39  43
2020 09 19 17  01 56 50.588   +00 18 03.83  .40867 1.3680 147.9 23.1 1.41  43
2020 09 19 18  01 56 53.456   +00 18 12.67  .40858 1.3680 148.0 23.1 1.44  43
2020 09 19 19  01 56 56.320   +00 18 21.52  .40848 1.3680 148.0 23.1 1.46  43
2020 09 19 20  01 56 59.180   +00 18 30.36  .40839 1.3680 148.0 23.1 1.49  43
2020 09 19 21  01 57 02.035   +00 18 39.20  .40830 1.3679 148.0 23.1 1.51  42
2020 09 19 22  01 57 04.887   +00 18 48.05  .40821 1.3679 148.1 23.1 1.54  42
2020 09 19 23  01 57 07.734   +00 18 56.89  .40812 1.3679 148.1 23.1 1.56  42
2020 09 20 00  01 57 10.577   +00 19 05.73  .40803 1.3679 148.1 23.1 1.59  42
2020 09 20 01  01 57 13.416   +00 19 14.58  .40793 1.3679 148.1 23.1 1.61  42
2020 09 20 02  01 57 16.251   +00 19 23.42  .40784 1.3678 148.2 23.1 1.64  42
2020 09 20 03  01 57 19.081   +00 19 32.27  .40775 1.3678 148.2 23.1 1.66  42
2020 09 20 04  01 57 21.908   +00 19 41.12  .40766 1.3678 148.2 23.1 1.69  42
2020 09 20 05  01 57 24.730   +00 19 49.96  .40757 1.3678 148.3 23.1 1.72  42
2020 09 20 06  01 57 27.548   +00 19 58.81  .40748 1.3677 148.3 23.1 1.74  41
2020 09 20 07  01 57 30.361   +00 20 07.66  .40739 1.3677 148.3 23.1 1.77  41
2020 09 20 08  01 57 33.171   +00 20 16.51  .40730 1.3677 148.3 23.1 1.80  41
2020 09 20 09  01 57 35.976   +00 20 25.36  .40721 1.3677 148.4 23.1 1.82  41